Regional Weather Roundup
Issued by NWS Little Rock, AR

Home | Current Version | Previous Version | Graphics & Text | Print | Product List | Glossary On
Versions: 1 2 3 4 5 6 7 8 9 10 11 12 13 14 15 16 17 18 19 20 21 22 23 24 25 26 27 28 29 30 31 32 33 34 35 36 37 38 39 40 41 42 43 44 45 46 47 48 49 50
000
ASUS44 KLZK 230905
RWRLZK

WEATHER ROUNDUP FOR ARKANSAS
NATIONAL WEATHER SERVICE LITTLE ROCK AR
400 AM CDT SAT SEP 23 2017

NOTE: "FAIR" INDICATES FEW OR NO CLOUDS BELOW 12,000 FEET WITH NO
SIGNIFICANT WEATHER AND/OR OBSTRUCTIONS TO VISIBILITY.

ARZ001-003-010-029-231000-
NORTHWEST ARKANSAS

CITY           SKY/WX    TMP DP  RH WIND       PRES   REMARKS
FAYETTEVILLE   CLEAR     64  64 100 CALM      30.00S FOG
FORT SMITH     CLEAR     72  70  93 NE3       29.96S
HARRISON       CLEAR     67  66  97 SE3       30.03S
BENTONVILLE    CLEAR     70  67  90 CALM      30.02S
ROGERS         CLEAR     71  68  90 SE6       30.01S
SILOAM SPGS    CLEAR     69  66  90 CALM      30.00S
$$

ARZ004-005-016-231000-
NORTH CENTRAL ARKANSAS

CITY           SKY/WX    TMP DP  RH WIND       PRES   REMARKS
BATESVILLE     CLEAR    N/A N/A N/A NW3       30.00S
FLIPPIN        CLEAR     67  66  97 CALM      30.01S
MTN HOME       CLEAR     69  67  93 CALM      30.00S
$$

ARZ040-041-231000-
WEST CENTRAL ARKANSAS

CITY           SKY/WX    TMP DP  RH WIND       PRES   REMARKS
MENA             N/A     63  63 100 CALM      30.00S
MOUNT IDA      CLEAR     66  63  90 CALM      29.96F
$$

ARZ009-017-025-026-028-231000-
NORTHEAST ARKANSAS

CITY           SKY/WX    TMP DP  RH WIND       PRES   REMARKS
JONESBORO      CLEAR     69  69 100 NE3       29.98S
BLYTHEVILLE    CLEAR     70  68  93 CALM      29.98F
$$

ARZ022-023-033-042-044-231000-
CENTRAL ARKANSAS

CITY           SKY/WX    TMP DP  RH WIND       PRES   REMARKS
LITTLE ROCK    CLEAR     72  72 100 CALM      29.97S
N LITTLE ROCK    N/A     73  69  86 CALM      29.97S
JACKSONVILLE   CLEAR     69  69  99 CALM      29.97S
CONWAY           N/A     68  66  94 CALM      29.96S
SEARCY         CLEAR     69  69 100 CALM      29.99S
HOT SPRINGS    CLEAR     70  68  93 CALM      29.98R
RUSSELLVILLE   CLEAR     68  67  96 CALM      29.97S
CLINTON        FAIR      66  66 100 CALM      30.00S FOG
$$

ARZ036-231000-
EAST ARKANSAS

CITY           SKY/WX    TMP DP  RH WIND       PRES   REMARKS
WEST MEMPHIS   CLEAR     70  70 100 CALM      29.96S
$$

ARZ050-053-066-070-073-231000-
SOUTHWEST ARKANSAS

CITY           SKY/WX    TMP DP  RH WIND       PRES   REMARKS
ARKADELPHIA    FOG       66  66 100 CALM      29.97R VSB 1
CAMDEN         PTCLDY    68  64  88 CALM      29.95R FOG
TEXARKANA      CLEAR     69  68  96 CALM      29.95S
EL DORADO      CLEAR     69  68  96 CALM      29.95S
DE QUEEN       FOG       66  66 100 CALM      29.94S VSB 1/2
$$

ARZ056-057-069-231000-
SOUTHEAST ARKANSAS

CITY           SKY/WX    TMP DP  RH WIND       PRES   REMARKS
PINE BLUFF     CLEAR     71  69  93 CALM      29.96S
STUTTGART      CLEAR     70  68  93 N3        29.97R
MONTICELLO     CLEAR     71  68  90 CALM      29.95S

$$





USA.gov is the U.S. government's official web portal to all federal, state and local government web resources and services.